Powrót do katalogu

MAQSAT/ARIANE 5

AktywnyNaukaGTO
NORAD 25503·PAYLOAD·🇫🇷 France

Wystrzelony Oct 21, 1998 z Guiana Space Centre

Loading…

TLE

Starzejące sięSource: Space-Track

Epoka: Sep 14, 2026, 12:22 UTC

1 25503U 98059A   26257.51590043 -.00000031  00000-0  16181-2 0  9999
2 25503   6.7939 227.9533 7016413 209.7226  78.9150  2.24577595228976

Śledź MAQSAT/ARIANE 5 w czasie rzeczywistym z AllMySat

Download on the App Store